Skip Page Navigation
NASA JPL Caltech
NASA Logo - Jet Propulsion Laboratory + View the NASA Portal
+ Center for Near-Earth Object Studies
JPL Home Earth Solar System Stars & Galaxies Technology
JPL Solar System Dynamics
BODIES ORBITS EPHEMERIDES TOOLS PHYSICAL DATA DISCOVERY FAQ SITE MAP
JPL Small-Body Database Browser
Search: [ help ]  
136696 (1995 SC52)
Classification: Main-belt Asteroid          SPK-ID: 2136696
Ephemeris | Orbit Diagram | Orbital Elements | Mission Design | Physical Parameters | Discovery Circumstances ]

[ show orbit diagram ]
Orbital Elements at Epoch 2459000.5 (2020-May-31.0) TDB
Reference: JPL 10 (heliocentric ecliptic J2000)
 Element Value Uncertainty (1-sigma)   Units 
e .1768187635006284 6.1391e-08  
a 2.350643493228665 2.1325e-08 au
q 1.935005617325175 1.4627e-07 au
i .9950188133582156 7.8797e-06 deg
node 199.7883412374001 0.0003919 deg
peri 75.92661429850222 0.00039298 deg
M 26.04293926936143 3.98e-05 deg
tp 2458905.271690328006
(2020-Feb-25.77169033)
0.00014462 TDB
period 1316.371824521727
3.60
1.7913e-05
4.904e-08
d
yr
n .2734789618661106 3.7214e-09 deg/d
Q 2.766281369132155 2.5095e-08 au
  Orbit Determination Parameters
   # obs. used (total)      166  
   data-arc span      8556 days (23.43 yr)  
   first obs. used      1995-09-26  
   last obs. used      2019-02-28  
   planetary ephem.      DE431  
   SB-pert. ephem.      SB431-N16  
   condition code      0  
   norm. resid. RMS      .63678  
   source      ORB  
   producer      Otto Matic  
   solution date      2019-Jul-13 13:11:01  

Additional Information
 Earth MOID = .918918 au 
 Jupiter MOID = 2.34862 au 
 T_jup = 3.536 
[ show covariance matrix ]

Ephemeris | Orbit Diagram | Orbital Elements | Mission Design | Physical Parameters | Discovery Circumstances ]

Physical Parameter Table
Parameter Symbol Value Units Sigma Reference Notes
absolute magnitude H 17.5   n/a MPO432828  

136696 (1995 SC52)          Discovered 1995-Sep-26 by Spacewatch at Kitt Peak
Reference: 20061205/Numbers.arcLast Updated: 2006-12-13

Alternate Designations
 1995 SC52 = 2002 RU163 
Ephemeris | Orbit Diagram | Orbital Elements | Mission Design | Physical Parameters | Discovery Circumstances ]
ABOUT SSD CREDITS/AWARDS PRIVACY/COPYRIGHT GLOSSARY LINKS
FirstGov 2020-Jul-08 15:09 UT
(server date/time)  
NASA Home Page
Site Manager:   Ryan S. Park
Webmaster  Alan B. Chamberlin